Time,TemperatureF,DewpointF,PressureIn,WindDirection,WindDirectionDegrees,WindSpeedMPH,WindSpeedGustMPH,Humidity,HourlyPrecipIn,Conditions,Clouds,dailyrainin,SoftwareType,DateUTC
2013-02-27 00:00:00,5.0,1.0,-100.00,NW,312,2.0,5.0,82,-99.99,,,-99.99,,2013-02-27 07:00:00,
2013-02-27 00:32:00,5.0,1.0,-100.00,NW,312,2.0,5.0,82,-99.99,,,-99.99,,2013-02-27 07:32:00,
2013-02-27 00:42:00,5.0,1.0,-100.00,NW,312,2.0,5.0,82,-99.99,,,-99.99,,2013-02-27 07:42:00,
2013-02-27 00:52:00,5.0,1.0,-100.00,NW,312,2.0,5.0,82,-99.99,,,-99.99,,2013-02-27 07:52:00,
2013-02-27 02:00:00,4.0,2.0,-100.00,NW,322,2.0,4.0,91,-99.99,,,-99.99,,2013-02-27 09:00:00,
2013-02-27 02:32:00,4.0,2.0,-100.00,NW,322,2.0,4.0,91,-99.99,,,-99.99,,2013-02-27 09:32:00,
2013-02-27 02:42:00,4.0,2.0,-100.00,NW,322,2.0,4.0,91,-99.99,,,-99.99,,2013-02-27 09:42:00,
2013-02-27 02:52:00,4.0,2.0,-100.00,NW,322,2.0,4.0,91,-99.99,,,-99.99,,2013-02-27 09:52:00,
2013-02-27 04:00:00,4.0,1.0,-100.00,WNW,292,3.0,7.0,85,-99.99,,,-99.99,,2013-02-27 11:00:00,
2013-02-27 04:32:00,4.0,1.0,-100.00,WNW,292,3.0,7.0,85,-99.99,,,-99.99,,2013-02-27 11:32:00,
2013-02-27 04:42:00,4.0,1.0,-100.00,WNW,292,3.0,7.0,85,-99.99,,,-99.99,,2013-02-27 11:42:00,
2013-02-27 04:52:00,4.0,1.0,-100.00,WNW,292,3.0,7.0,85,-99.99,,,-99.99,,2013-02-27 11:52:00,
2013-02-27 06:00:00,5.0,-2.0,-100.00,NNW,330,1.0,4.0,72,-99.99,,,-99.99,,2013-02-27 13:00:00,
2013-02-27 06:32:00,5.0,-2.0,-100.00,NNW,330,1.0,4.0,72,-99.99,,,-99.99,,2013-02-27 13:32:00,
2013-02-27 06:42:00,5.0,-2.0,-100.00,NNW,330,1.0,4.0,72,-99.99,,,-99.99,,2013-02-27 13:42:00,
2013-02-27 06:52:00,5.0,-2.0,-100.00,NNW,330,1.0,4.0,72,-99.99,,,-99.99,,2013-02-27 13:52:00,
2013-02-27 08:00:00,8.0,1.0,-100.00,NNW,332,1.0,5.0,72,-99.99,,,-99.99,,2013-02-27 15:00:00,
2013-02-27 08:32:00,8.0,1.0,-100.00,NNW,332,1.0,5.0,72,-99.99,,,-99.99,,2013-02-27 15:32:00,
2013-02-27 08:42:00,8.0,1.0,-100.00,NNW,332,1.0,5.0,72,-99.99,,,-99.99,,2013-02-27 15:42:00,
2013-02-27 08:52:00,8.0,1.0,-100.00,NNW,332,1.0,5.0,72,-99.99,,,-99.99,,2013-02-27 15:52:00,
2013-02-27 10:00:00,13.0,0.0,-100.00,WNW,282,2.0,5.0,56,-99.99,,,-99.99,,2013-02-27 17:00:00,
2013-02-27 10:32:00,13.0,0.0,-100.00,WNW,282,2.0,5.0,56,-99.99,,,-99.99,,2013-02-27 17:32:00,
2013-02-27 10:42:00,13.0,0.0,-100.00,WNW,282,2.0,5.0,56,-99.99,,,-99.99,,2013-02-27 17:42:00,
2013-02-27 10:52:00,13.0,0.0,-100.00,WNW,282,2.0,5.0,56,-99.99,,,-99.99,,2013-02-27 17:52:00,
2013-02-27 12:00:00,16.0,6.0,-100.00,NW,305,3.0,6.0,63,-99.99,,,-99.99,,2013-02-27 19:00:00,
2013-02-27 12:32:00,16.0,6.0,-100.00,NW,305,3.0,6.0,63,-99.99,,,-99.99,,2013-02-27 19:32:00,
2013-02-27 12:42:00,16.0,6.0,-100.00,NW,305,3.0,6.0,63,-99.99,,,-99.99,,2013-02-27 19:42:00,
2013-02-27 12:52:00,16.0,6.0,-100.00,NW,305,3.0,6.0,63,-99.99,,,-99.99,,2013-02-27 19:52:00,
2013-02-27 14:00:00,18.0,5.0,-100.00,NW,313,4.0,9.0,55,-99.99,,,-99.99,,2013-02-27 21:00:00,
2013-02-27 14:32:00,18.0,5.0,-100.00,NW,313,4.0,9.0,55,-99.99,,,-99.99,,2013-02-27 21:32:00,
2013-02-27 14:42:00,18.0,5.0,-100.00,NW,313,4.0,9.0,55,-99.99,,,-99.99,,2013-02-27 21:42:00,
2013-02-27 14:52:00,18.0,5.0,-100.00,NW,313,4.0,9.0,55,-99.99,,,-99.99,,2013-02-27 21:52:00,
2013-02-27 16:00:00,19.0,2.0,-100.00,NW,319,3.0,8.0,46,-99.99,,,-99.99,,2013-02-27 23:00:00,
2013-02-27 16:32:00,19.0,2.0,-100.00,NW,319,3.0,8.0,46,-99.99,,,-99.99,,2013-02-27 23:32:00,
2013-02-27 16:42:00,19.0,2.0,-100.00,NW,319,3.0,8.0,46,-99.99,,,-99.99,,2013-02-27 23:42:00,
2013-02-27 16:53:00,19.0,2.0,-100.00,NW,319,3.0,8.0,46,-99.99,,,-99.99,,2013-02-27 23:53:00,
2013-02-27 18:00:00,16.0,2.0,-100.00,WNW,303,2.0,5.0,53,-99.99,,,-99.99,,2013-02-28 01:00:00,
2013-02-27 18:32:00,16.0,2.0,-100.00,WNW,303,2.0,5.0,53,-99.99,,,-99.99,,2013-02-28 01:32:00,
2013-02-27 18:42:00,16.0,2.0,-100.00,WNW,303,2.0,5.0,53,-99.99,,,-99.99,,2013-02-28 01:42:00,
2013-02-27 18:52:00,16.0,2.0,-100.00,WNW,303,2.0,5.0,53,-99.99,,,-99.99,,2013-02-28 01:52:00,
2013-02-27 20:00:00,15.0,1.0,-100.00,NW,309,3.0,5.0,51,-99.99,,,-99.99,,2013-02-28 03:00:00,
2013-02-27 20:32:00,15.0,1.0,-100.00,NW,309,3.0,5.0,51,-99.99,,,-99.99,,2013-02-28 03:32:00,
2013-02-27 20:42:00,15.0,1.0,-100.00,NW,309,3.0,5.0,51,-99.99,,,-99.99,,2013-02-28 03:42:00,
2013-02-27 20:52:00,15.0,1.0,-100.00,NW,309,3.0,5.0,51,-99.99,,,-99.99,,2013-02-28 03:52:00,
2013-02-27 22:00:00,15.0,-1.0,-100.00,NW,305,5.0,11.0,48,-99.99,,,-99.99,,2013-02-28 05:00:00,
2013-02-27 22:32:00,15.0,-1.0,-100.00,NW,305,5.0,11.0,48,-99.99,,,-99.99,,2013-02-28 05:32:00,
2013-02-27 22:42:00,15.0,-1.0,-100.00,NW,305,5.0,11.0,48,-99.99,,,-99.99,,2013-02-28 05:42:00,
2013-02-27 22:52:00,15.0,-1.0,-100.00,NW,305,5.0,11.0,48,-99.99,,,-99.99,,2013-02-28 05:52:00,